sat.trackr.live / text

‹ back to catalog

STARLINK-4323

NORAD 53069 · 2022-077AC

PAYLOAD ACTIVE UNKNOWN

§ Identity

Operator
Country
US
Launch date
2022-07-11
Launch site
AFWTR
Launch vehicle
Mass (kg)
RCS (m²)

Purposes: comms

External: N2YO · Heavens-Above · Gunter

§ Orbital elements

Epoch: 2026-05-25T02:19:04.637280Z

Period
95.64 min
Inclination
97.4466°
Eccentricity
0.0000975
Mean motion
15.05651605 rev/d
Perigee alt
548.8 km
Apogee alt
550.2 km
Semi-major
6,927.6 km
B*
1.1374e-5
RAAN
324.9882°
Arg perigee
125.2552°
Mean anomaly
234.8767°
Rev number
21,240

§ Raw data

STARLINK-43231 53069U 22077AC  26145.09658145  .00000106  00000+0  11374-4 0  99932 53069  97.4466 324.9882 0000975 125.2552 234.8767 15.05651605212400

JSON: /api/v1/satellites/53069 · /tle

For live sub-satellite position, see the globe view (requires WebGL).

§ Visibility from observer

Set your observer location to see the next 7 days of passes ≥ 10°. The values pass through the URL so the page stays shareable.

No JS? Fill the form by hand. The geolocation button needs JavaScript.